Date String (YYYY-MM-DD hh:mm:ss) UTC,Instrument flags,absolute air pressure of the measurement (hPa),sample flow rate (lpm),inlet stack bypass flow (lpm),air temperature of the measurement (°C),ambient temperature measured by the external sensor (°C),aerosol sample conditioner tube jacket temperature (°C),OPC LED temperature (°C),internal box temperature (°C),relative humidity of the measurement (%),span deviation,mass concentration of particles derived from Lorenz-Mie calculation of OPC scattering (μg/m³),mass concentration of particles derived from Lorenz-Mie calculation of OPC scattering (μg/m³),mass concentration of particles derived from Lorenz-Mie calculation of OPC scattering (μg/m³)
DateTimeUTC,F1_M11,P_M11,Q1_M11,Q2_M11,T1_M11,T2_M11,T3_M11,T4_M11,T5_M11,U1_M11,ZSPAN_M11,X2_M11,X0_M11,X1_M11
2024-02-07 01:00:00,SystemResetWarning,0820.2,5.00,000.00,023.9,023.2,000.0,032.3,025.6,13.9,0000.0,0002.53,0006.20,0002.03
2024-02-07 01:01:00,SystemResetWarning,0820.3,5.01,000.00,023.9,023.2,000.0,032.3,025.6,13.9,0000.0,0002.47,0006.29,0001.97
2024-02-07 01:02:00,SystemResetWarning,0820.3,5.01,000.00,023.9,023.2,000.0,032.3,025.6,13.8,0000.0,0002.46,0006.52,0001.94
2024-02-07 01:03:00,SystemResetWarning,0820.3,5.00,000.00,023.9,023.2,000.0,032.3,025.6,13.8,0000.0,0002.54,0007.29,0002.00
2024-02-07 01:04:00,SystemResetWarning,0820.3,4.99,000.00,023.9,023.2,000.0,032.3,025.6,13.7,0000.0,0002.62,0007.46,0002.08
2024-02-07 01:05:00,SystemResetWarning,0820.3,5.00,000.00,023.9,023.2,000.0,032.3,025.6,13.7,0000.0,0002.73,0006.41,0002.16
2024-02-07 01:06:00,SystemResetWarning,0820.3,4.99,000.00,023.9,023.2,000.0,032.3,025.6,13.6,0000.0,0002.76,0005.90,0002.22
2024-02-07 01:07:00,SystemResetWarning,0820.3,5.00,000.00,023.9,023.2,000.0,032.3,025.6,13.7,0000.0,0002.88,0007.10,0002.34
2024-02-07 01:08:00,SystemResetWarning,0820.3,5.01,000.00,023.9,023.2,000.0,032.3,025.6,13.6,0000.0,0003.04,0007.29,0002.46
2024-02-07 01:09:00,SystemResetWarning,0820.3,5.00,000.00,023.8,023.2,000.0,032.3,025.6,13.5,0000.0,0003.17,0007.52,0002.62
2024-02-07 01:10:00,SystemResetWarning,0820.3,5.01,000.00,023.8,023.2,000.0,032.3,025.6,13.5,0000.0,0003.27,0007.84,0002.81
2024-02-07 01:11:00,SystemResetWarning,0820.2,5.00,000.00,023.8,023.2,000.0,032.3,025.6,13.5,0000.0,0003.42,0008.02,0003.03
2024-02-07 01:12:00,SystemResetWarning,0820.2,5.00,000.00,023.8,023.2,000.0,032.3,025.6,13.5,0000.0,0003.56,0008.07,0003.19
2024-02-07 01:13:00,SystemResetWarning,0820.3,5.00,000.00,023.8,023.2,000.0,032.3,025.6,13.5,0000.0,0003.70,0008.16,0003.32
2024-02-07 01:14:00,SystemResetWarning,0820.3,5.00,000.00,023.8,023.2,000.0,032.3,025.6,13.5,0000.0,0003.77,0008.34,0003.39
2024-02-07 01:15:00,SystemResetWarning,0820.3,5.00,000.00,023.8,023.1,000.0,032.3,025.6,13.5,0000.0,0003.84,0008.93,0003.46
2024-02-07 01:16:00,SystemResetWarning,0820.3,5.01,000.00,023.8,023.1,000.0,032.3,025.6,13.6,0000.0,0003.90,0008.97,0003.52
2024-02-07 01:17:00,SystemResetWarning,0820.3,5.01,000.00,023.8,023.1,000.0,032.3,025.6,13.9,0000.0,0004.00,0009.47,0003.59
2024-02-07 01:18:00,SystemResetWarning,0820.3,4.99,000.00,023.8,023.1,000.0,032.3,025.6,13.7,0000.0,0004.03,0009.23,0003.62
2024-02-07 01:19:00,SystemResetWarning,0820.3,4.99,000.00,023.8,023.2,000.0,032.3,025.6,13.7,0000.0,0004.06,0009.26,0003.65
2024-02-07 01:20:00,SystemResetWarning,0820.2,4.99,000.00,023.8,023.1,000.0,032.3,025.6,13.6,0000.0,0004.07,0009.25,0003.66
2024-02-07 01:21:00,SystemResetWarning,0820.2,5.00,000.00,023.8,023.2,000.0,032.3,025.6,13.5,0000.0,0004.02,0009.71,0003.63
2024-02-07 01:22:00,SystemResetWarning,0820.1,5.01,000.00,023.8,023.2,000.0,032.2,025.6,13.4,0000.0,0003.99,0009.93,0003.61
2024-02-07 01:23:00,SystemResetWarning,0820.1,5.01,000.00,023.8,023.1,000.0,032.2,025.6,13.4,0000.0,0003.97,0010.97,0003.61
2024-02-07 01:24:00,SystemResetWarning,0820.1,5.01,000.00,023.8,023.1,000.0,032.2,025.6,13.4,0000.0,0003.96,0010.94,0003.60
2024-02-07 01:25:00,SystemResetWarning,0820.1,5.01,000.00,023.8,023.1,000.0,032.2,025.6,13.4,0000.0,0003.96,0010.44,0003.61
2024-02-07 01:26:00,SystemResetWarning,0820.1,4.98,000.00,023.8,023.1,000.0,032.2,025.6,13.4,0000.0,0003.96,0009.87,0003.60
2024-02-07 01:27:00,SystemResetWarning,0820.0,4.99,000.00,023.8,023.1,000.0,032.2,025.6,13.3,0000.0,0003.98,0009.78,0003.59
2024-02-07 01:28:00,SystemResetWarning,0820.0,5.01,000.00,023.8,023.1,000.0,032.2,025.6,13.3,0000.0,0003.91,0009.57,0003.56
2024-02-07 01:29:00,SystemResetWarning,0820.0,5.01,000.00,023.8,023.1,000.0,032.2,025.6,13.6,0000.0,0003.90,0008.85,0003.56
2024-02-07 01:30:00,SystemResetWarning,0820.0,4.99,000.00,023.8,023.1,000.0,032.2,025.6,14.6,0000.0,0003.86,0008.74,0003.54
2024-02-07 01:31:00,SystemResetWarning,0820.0,4.99,000.00,023.8,023.1,000.0,032.2,025.5,15.3,0000.0,0003.82,0008.84,0003.52
2024-02-07 01:32:00,SystemResetWarning,0820.1,4.99,000.00,023.8,023.1,000.0,032.2,025.6,15.7,0000.0,0003.84,0009.08,0003.53
2024-02-07 01:33:00,SystemResetWarning,0820.1,5.00,000.00,023.8,023.1,000.0,032.2,025.5,15.7,0000.0,0003.81,0009.24,0003.49
2024-02-07 01:34:00,SystemResetWarning,0820.1,5.01,000.00,023.8,023.1,000.0,032.2,025.5,15.7,0000.0,0003.69,0008.50,0003.39
2024-02-07 01:35:00,SystemResetWarning,0819.9,5.00,000.00,023.8,023.1,000.0,032.2,025.5,15.7,0000.0,0003.56,0008.44,0003.26
2024-02-07 01:36:00,SystemResetWarning,0819.9,5.00,000.00,023.8,023.1,000.0,032.2,025.5,15.7,0000.0,0003.43,0009.22,0003.11
2024-02-07 01:37:00,SystemResetWarning,0819.9,5.00,000.00,023.8,023.1,000.0,032.2,025.5,15.6,0000.0,0003.29,0009.12,0002.85
2024-02-07 01:38:00,SystemResetWarning,0819.8,5.00,000.00,023.8,023.1,000.0,032.2,025.5,15.6,0000.0,0003.11,0008.91,0002.59
2024-02-07 01:39:00,SystemResetWarning,0820.0,5.00,000.00,023.8,023.1,000.0,032.2,025.5,15.7,0000.0,0002.93,0008.75,0002.35
2024-02-07 01:40:00,SystemResetWarning,0820.1,5.00,000.00,023.8,023.0,000.0,032.2,025.5,15.4,0000.0,0002.65,0008.69,0002.07
2024-02-07 01:41:00,SystemResetWarning,0819.9,4.99,000.00,023.8,023.0,000.0,032.2,025.5,15.3,0000.0,0002.36,0008.61,0001.81
2024-02-07 01:42:00,SystemResetWarning,0819.8,5.00,000.00,023.7,023.0,000.0,032.2,025.5,15.6,0000.0,0002.18,0008.48,0001.63
2024-02-07 01:43:00,SystemResetWarning,0819.8,5.00,000.00,023.7,023.0,000.0,032.2,025.5,15.7,0000.0,0001.97,0007.40,0001.44
2024-02-07 01:44:00,SystemResetWarning,0819.7,5.00,000.00,023.7,023.0,000.0,032.2,025.5,15.8,0000.0,0001.79,0006.35,0001.30
2024-02-07 01:45:00,SystemResetWarning,0819.8,4.99,000.00,023.7,023.0,000.0,032.2,025.5,16.0,0000.0,0001.78,0005.65,0001.28
2024-02-07 01:46:00,SystemResetWarning,0819.8,5.01,000.00,023.7,023.0,000.0,032.2,025.5,16.0,0000.0,0001.72,0004.89,0001.26
2024-02-07 01:47:00,SystemResetWarning,0819.8,5.00,000.00,023.7,023.0,000.0,032.2,025.5,15.8,0000.0,0001.65,0003.01,0001.26
2024-02-07 01:48:00,SystemResetWarning,0819.8,5.00,000.00,023.7,023.0,000.0,032.1,025.5,15.7,0000.0,0001.64,0002.86,0001.27
2024-02-07 01:49:00,SystemResetWarning,0819.8,4.99,000.00,023.7,023.0,000.0,032.1,025.5,15.5,0000.0,0001.62,0002.75,0001.26
2024-02-07 01:50:00,SystemResetWarning,0819.9,4.99,000.00,023.7,023.0,000.0,032.1,025.5,15.5,0000.0,0001.65,0002.88,0001.25
2024-02-07 01:51:00,SystemResetWarning,0820.1,4.99,000.00,023.7,023.0,000.0,032.1,025.5,15.5,0000.0,0001.67,0002.94,0001.25
2024-02-07 01:52:00,SystemResetWarning,0820.3,5.00,000.00,023.7,023.0,000.0,032.1,025.5,15.5,0000.0,0001.66,0002.63,0001.25
2024-02-07 01:53:00,SystemResetWarning,0819.9,5.01,000.00,023.7,023.0,000.0,032.1,025.5,15.5,0000.0,0001.65,0002.62,0001.25
2024-02-07 01:54:00,SystemResetWarning,0819.7,5.01,000.00,023.7,023.0,000.0,032.1,025.5,15.6,0000.0,0001.67,0002.73,0001.24
2024-02-07 01:55:00,SystemResetWarning,0819.8,4.98,000.00,023.7,023.0,000.0,032.1,025.5,15.6,0000.0,0001.65,0003.09,0001.22
2024-02-07 01:56:00,SystemResetWarning,0820.0,5.00,000.00,023.7,023.0,000.0,032.1,025.5,15.3,0000.0,0001.59,0003.17,0001.20
2024-02-07 01:57:00,SystemResetWarning,0820.0,5.00,000.00,023.7,022.9,000.0,032.1,025.5,15.1,0000.0,0001.57,0003.13,0001.19
2024-02-07 01:58:00,SystemResetWarning,0819.9,5.01,000.00,023.7,022.9,000.0,032.1,025.5,15.1,0000.0,0001.58,0003.20,0001.19
2024-02-07 01:59:00,SystemResetWarning,0819.8,5.01,000.00,023.7,023.0,000.0,032.1,025.5,15.1,0000.0,0001.65,0003.45,0001.21
